Time,TemperatureF,DewpointF,PressureIn,WindDirection,WindDirectionDegrees,WindSpeedMPH,WindSpeedGustMPH,Humidity,HourlyPrecipIn,Conditions,Clouds,dailyrainin,SoftwareType,DateUTC
2013-07-17 00:03:00,76.3,-99.9,-100.00,North,-999,0.0,0.0,-999,0.00,,,-99.99,WeatherLink 5.4,2013-07-17 04:03:00,
2013-07-17 00:33:00,75.2,-99.9,-100.00,North,-999,0.0,0.0,-999,0.00,,,-99.99,WeatherLink 5.4,2013-07-17 04:33:00,
2013-07-17 01:03:00,75.2,-99.9,-100.00,North,-999,0.0,0.0,-999,0.00,,,-99.99,WeatherLink 5.4,2013-07-17 05:03:00,
2013-07-17 01:33:00,74.8,-99.9,-100.00,North,-999,0.0,0.0,-999,0.00,,,-99.99,WeatherLink 5.4,2013-07-17 05:33:00,
2013-07-17 02:03:00,74.4,-99.9,-100.00,North,-999,0.0,0.0,-999,0.00,,,-99.99,WeatherLink 5.4,2013-07-17 06:03:00,
2013-07-17 02:33:00,74.5,-99.9,-100.00,North,-999,0.0,0.0,-999,0.00,,,-99.99,WeatherLink 5.4,2013-07-17 06:33:00,
2013-07-17 03:03:00,74.2,-99.9,-100.00,North,-999,0.0,0.0,-999,0.00,,,-99.99,WeatherLink 5.4,2013-07-17 07:03:00,
2013-07-17 03:33:00,74.1,-99.9,-100.00,North,-999,0.0,0.0,-999,0.00,,,-99.99,WeatherLink 5.4,2013-07-17 07:33:00,
2013-07-17 04:03:00,73.8,-99.9,-100.00,North,-999,0.0,0.0,-999,0.00,,,-99.99,WeatherLink 5.4,2013-07-17 08:03:00,
2013-07-17 04:33:00,73.7,-99.9,-100.00,North,-999,0.0,0.0,-999,0.00,,,-99.99,WeatherLink 5.4,2013-07-17 08:33:00,
2013-07-17 05:03:00,73.8,-99.9,-100.00,North,-999,0.0,0.0,-999,0.00,,,-99.99,WeatherLink 5.4,2013-07-17 09:03:00,
2013-07-17 05:33:00,74.0,-99.9,-100.00,North,-999,0.0,0.0,-999,0.00,,,-99.99,WeatherLink 5.4,2013-07-17 09:33:00,
2013-07-17 06:03:00,73.6,-99.9,-100.00,North,-999,0.0,0.0,-999,0.00,,,-99.99,WeatherLink 5.4,2013-07-17 10:03:00,
2013-07-17 06:33:00,73.9,-99.9,-100.00,North,-999,0.0,0.0,-999,0.00,,,-99.99,WeatherLink 5.4,2013-07-17 10:33:00,
2013-07-17 07:03:00,73.9,-99.9,-100.00,North,-999,0.0,0.0,-999,0.00,,,-99.99,WeatherLink 5.4,2013-07-17 11:03:00,
2013-07-17 07:33:00,73.6,-99.9,-100.00,North,-999,0.0,0.0,-999,0.00,,,-99.99,WeatherLink 5.4,2013-07-17 11:33:00,
2013-07-17 08:03:00,74.6,-99.9,-100.00,North,-999,0.0,1.0,-999,0.00,,,-99.99,WeatherLink 5.4,2013-07-17 12:03:00,
2013-07-17 08:33:00,75.2,-99.9,-100.00,North,-999,0.0,0.0,-999,0.00,,,-99.99,WeatherLink 5.4,2013-07-17 12:33:00,
2013-07-17 09:03:00,75.3,-99.9,-100.00,North,-999,0.0,0.0,-999,0.00,,,-99.99,WeatherLink 5.4,2013-07-17 13:03:00,
2013-07-17 09:33:00,75.1,-99.9,-100.00,North,-999,0.0,0.0,-999,0.00,,,-99.99,WeatherLink 5.4,2013-07-17 13:33:00,
2013-07-17 10:03:00,76.3,-99.9,-100.00,North,0,0.0,2.0,-999,0.00,,,-99.99,WeatherLink 5.4,2013-07-17 14:03:00,
2013-07-17 10:33:00,76.9,-99.9,-100.00,North,-999,0.0,0.0,-999,0.00,,,-99.99,WeatherLink 5.4,2013-07-17 14:33:00,
2013-07-17 11:03:00,77.7,-99.9,-100.00,North,-999,0.0,0.0,-999,0.00,,,-99.99,WeatherLink 5.4,2013-07-17 15:03:00,
2013-07-17 11:33:00,79.1,-99.9,-100.00,North,0,0.0,3.0,-999,0.00,,,-99.99,WeatherLink 5.4,2013-07-17 15:33:00,
2013-07-17 12:03:00,81.5,-99.9,-100.00,North,0,0.0,4.0,-999,0.00,,,-99.99,WeatherLink 5.4,2013-07-17 16:03:00,
2013-07-17 12:33:00,83.4,-99.9,-100.00,NNW,337,1.0,7.0,-999,0.00,,,-99.99,WeatherLink 5.4,2013-07-17 16:33:00,
2013-07-17 13:03:00,85.3,-99.9,-100.00,NE,45,0.0,7.0,-999,0.00,,,-99.99,WeatherLink 5.4,2013-07-17 17:03:00,
2013-07-17 13:34:00,96.1,-99.9,-100.00,NNW,337,1.0,7.0,-999,0.00,,,-99.99,WeatherLink 5.4,2013-07-17 17:34:00,
2013-07-17 14:03:00,97.3,-99.9,-100.00,NNW,337,1.0,7.0,-999,0.00,,,-99.99,WeatherLink 5.4,2013-07-17 18:03:00,
2013-07-17 14:33:00,91.3,-99.9,-100.00,NW,315,1.0,6.0,-999,0.00,,,-99.99,WeatherLink 5.4,2013-07-17 18:33:00,
2013-07-17 15:03:00,89.4,-99.9,-100.00,North,0,1.0,8.0,-999,0.00,,,-99.99,WeatherLink 5.4,2013-07-17 19:03:00,
2013-07-17 15:33:00,90.0,-99.9,-100.00,NNW,337,1.0,8.0,-999,0.00,,,-99.99,WeatherLink 5.4,2013-07-17 19:33:00,
2013-07-17 16:03:00,90.4,-99.9,-100.00,NW,315,1.0,7.0,-999,0.00,,,-99.99,WeatherLink 5.4,2013-07-17 20:03:00,
2013-07-17 16:33:00,91.0,-99.9,-100.00,NW,315,1.0,10.0,-999,0.00,,,-99.99,WeatherLink 5.4,2013-07-17 20:33:00,
2013-07-17 17:03:00,91.1,-99.9,-100.00,NW,315,1.0,9.0,-999,0.00,,,-99.99,WeatherLink 5.4,2013-07-17 21:03:00,
2013-07-17 17:33:00,91.1,-99.9,-100.00,NNW,337,1.0,7.0,-999,0.00,,,-99.99,WeatherLink 5.4,2013-07-17 21:33:00,
2013-07-17 18:03:00,90.9,-99.9,-100.00,NNW,337,2.0,9.0,-999,0.00,,,-99.99,WeatherLink 5.4,2013-07-17 22:03:00,
2013-07-17 18:33:00,91.2,-99.9,-100.00,NW,315,1.0,6.0,-999,0.00,,,-99.99,WeatherLink 5.4,2013-07-17 22:33:00,
2013-07-17 19:03:00,91.2,-99.9,-100.00,NNW,337,1.0,7.0,-999,0.00,,,-99.99,WeatherLink 5.4,2013-07-17 23:03:00,
2013-07-17 19:33:00,90.1,-99.9,-100.00,NNW,337,1.0,7.0,-999,0.00,,,-99.99,WeatherLink 5.4,2013-07-17 23:33:00,
2013-07-17 20:03:00,89.2,-99.9,-100.00,NNW,337,0.0,5.0,-999,0.00,,,-99.99,WeatherLink 5.4,2013-07-18 00:03:00,
2013-07-17 20:33:00,86.1,-99.9,-100.00,NNW,337,1.0,8.0,-999,0.00,,,-99.99,WeatherLink 5.4,2013-07-18 00:33:00,
2013-07-17 21:03:00,83.8,-99.9,-100.00,NNW,337,0.0,5.0,-999,0.00,,,-99.99,WeatherLink 5.4,2013-07-18 01:03:00,
2013-07-17 21:33:00,82.6,-99.9,-100.00,NNW,337,0.0,2.0,-999,0.00,,,-99.99,WeatherLink 5.4,2013-07-18 01:33:00,
2013-07-17 22:03:00,79.8,-99.9,-100.00,North,-999,0.0,0.0,-999,0.00,,,-99.99,WeatherLink 5.4,2013-07-18 02:03:00,
2013-07-17 22:33:00,78.2,-99.9,-100.00,North,-999,0.0,0.0,-999,0.00,,,-99.99,WeatherLink 5.4,2013-07-18 02:33:00,
2013-07-17 23:03:00,77.5,-99.9,-100.00,North,-999,0.0,0.0,-999,0.00,,,-99.99,WeatherLink 5.4,2013-07-18 03:03:00,
2013-07-17 23:33:00,76.7,-99.9,-100.00,North,-999,0.0,0.0,-999,0.00,,,-99.99,WeatherLink 5.4,2013-07-18 03:33:00,